contact:dominique.lefevre@mio.osupytheas.fr, maurice.libes@osupytheas.fr, didier.mallarino@osupytheas.fr
Project:EMSO http://www.emso-fr.org/EMSO-France
Depth: 2436.0 m
Title:EMSO Ligure Ouest : Data MII capteur MICROCAT
DateTime_Computer,Latitude,Longitude,Temperature,Conductivity,Pressure,DateTime_Instrument
DateTime_Computer,Latitude,Longitude,degC,S m-1,dbar,DateTime_Instrument
2023-08-19T00:00:51Z,42.805,6.029,13.3031,4.60092,2470.777,2023-8-19T02:03:10Z
2023-08-19T00:03:54Z,42.805,6.029,13.3033,4.60092,2470.754,2023-8-19T02:06:13Z
2023-08-19T00:06:57Z,42.805,6.029,13.3029,4.60094,2470.74,2023-8-19T02:09:16Z
2023-08-19T00:10:00Z,42.805,6.029,13.3031,4.60092,2470.74,2023-8-19T02:12:20Z
2023-08-19T00:13:03Z,42.805,6.029,13.3031,4.60092,2470.717,2023-8-19T02:15:23Z
2023-08-19T00:16:06Z,42.805,6.029,13.3031,4.60092,2470.717,2023-8-19T02:18:26Z
2023-08-19T00:19:09Z,42.805,6.029,13.3031,4.60092,2470.74,2023-8-19T02:21:29Z
2023-08-19T00:22:12Z,42.805,6.029,13.3031,4.60092,2470.717,2023-8-19T02:24:32Z
2023-08-19T00:25:15Z,42.805,6.029,13.3037,4.60093,2470.684,2023-8-19T02:27:35Z
2023-08-19T00:28:18Z,42.805,6.029,13.3031,4.60093,2470.73,2023-8-19T02:30:38Z
2023-08-19T00:31:22Z,42.805,6.029,13.3032,4.60092,2470.693,2023-8-19T02:33:41Z
2023-08-19T00:34:25Z,42.805,6.029,13.3029,4.60092,2470.693,2023-8-19T02:36:44Z
2023-08-19T00:37:28Z,42.805,6.029,13.3031,4.60091,2470.693,2023-8-19T02:39:47Z
2023-08-19T00:40:31Z,42.805,6.029,13.3030,4.60095,2470.717,2023-8-19T02:42:50Z
2023-08-19T00:43:34Z,42.805,6.029,13.3031,4.60092,2470.693,2023-8-19T02:45:53Z
2023-08-19T00:46:37Z,42.805,6.029,13.3032,4.60097,2470.707,2023-8-19T02:48:57Z
2023-08-19T00:49:40Z,42.805,6.029,13.3034,4.60092,2470.67,2023-8-19T02:52:00Z
2023-08-19T00:52:43Z,42.805,6.029,13.3030,4.60092,2470.707,2023-8-19T02:55:03Z
2023-08-19T00:55:46Z,42.805,6.029,13.3033,4.60091,2470.74,2023-8-19T02:58:06Z
2023-08-19T00:58:49Z,42.805,6.029,13.3028,4.60092,2470.717,2023-8-19T03:01:09Z
2023-08-19T01:01:52Z,42.805,6.029,13.3033,4.60097,2470.717,2023-8-19T03:04:12Z
2023-08-19T01:04:55Z,42.805,6.029,13.3031,4.60093,2470.717,2023-8-19T03:07:15Z
2023-08-19T01:07:58Z,42.805,6.029,13.3034,4.60094,2470.707,2023-8-19T03:10:18Z
2023-08-19T01:11:02Z,42.805,6.029,13.3029,4.60092,2470.684,2023-8-19T03:13:21Z
2023-08-19T01:14:05Z,42.805,6.029,13.3032,4.60097,2470.693,2023-8-19T03:16:24Z
2023-08-19T01:17:08Z,42.805,6.029,13.3032,4.60092,2470.707,2023-8-19T03:19:27Z
2023-08-19T01:20:11Z,42.805,6.029,13.3031,4.60092,2470.67,2023-8-19T03:22:30Z
2023-08-19T01:23:14Z,42.805,6.029,13.3031,4.60092,2470.67,2023-8-19T03:25:34Z
2023-08-19T01:26:17Z,42.805,6.029,13.3029,4.60091,2470.707,2023-8-19T03:28:37Z
2023-08-19T01:29:20Z,42.805,6.029,13.3031,4.60091,2470.693,2023-8-19T03:31:40Z
2023-08-19T01:32:23Z,42.805,6.029,13.3031,4.60092,2470.656,2023-8-19T03:34:43Z
2023-08-19T01:35:26Z,42.805,6.029,13.3030,4.60092,2470.717,2023-8-19T03:37:46Z
2023-08-19T01:38:29Z,42.805,6.029,13.3028,4.60091,2470.693,2023-8-19T03:40:49Z
2023-08-19T01:41:32Z,42.805,6.029,13.3031,4.60092,2470.646,2023-8-19T03:43:52Z
2023-08-19T01:44:35Z,42.805,6.029,13.3034,4.60092,2470.693,2023-8-19T03:46:55Z
2023-08-19T01:47:39Z,42.805,6.029,13.3031,4.60092,2470.684,2023-8-19T03:49:58Z
2023-08-19T01:50:42Z,42.805,6.029,13.3030,4.60094,2470.684,2023-8-19T03:53:01Z
2023-08-19T01:53:45Z,42.805,6.029,13.3030,4.60092,2470.661,2023-8-19T03:56:04Z
2023-08-19T01:56:48Z,42.805,6.029,13.3031,4.60092,2470.707,2023-8-19T03:59:07Z
2023-08-19T01:59:51Z,42.805,6.029,13.3031,4.60096,2470.646,2023-8-19T04:02:11Z
2023-08-19T02:02:54Z,42.805,6.029,13.3029,4.60096,2470.693,2023-8-19T04:05:14Z
2023-08-19T02:05:57Z,42.805,6.029,13.3029,4.60097,2470.661,2023-8-19T04:08:17Z
2023-08-19T02:09:00Z,42.805,6.029,13.3032,4.60090,2470.661,2023-8-19T04:11:20Z
2023-08-19T02:12:03Z,42.805,6.029,13.3029,4.60097,2470.61,2023-8-19T04:14:23Z
2023-08-19T02:15:06Z,42.805,6.029,13.3028,4.60091,2470.646,2023-8-19T04:17:26Z
2023-08-19T02:18:09Z,42.805,6.029,13.3033,4.60091,2470.646,2023-8-19T04:20:29Z
2023-08-19T02:21:12Z,42.805,6.029,13.3032,4.60092,2470.707,2023-8-19T04:23:32Z
2023-08-19T02:24:16Z,42.805,6.029,13.3030,4.60091,2470.646,2023-8-19T04:26:35Z
2023-08-19T02:27:19Z,42.805,6.029,13.3029,4.60092,2470.624,2023-8-19T04:29:38Z
2023-08-19T02:30:22Z,42.805,6.029,13.3031,4.60091,2470.661,2023-8-19T04:32:41Z
2023-08-19T02:33:25Z,42.805,6.029,13.3031,4.60097,2470.67,2023-8-19T04:35:44Z
2023-08-19T02:36:28Z,42.805,6.029,13.3029,4.60095,2470.661,2023-8-19T04:38:48Z
2023-08-19T02:39:31Z,42.805,6.029,13.3029,4.60093,2470.661,2023-8-19T04:41:51Z
2023-08-19T02:42:34Z,42.805,6.029,13.3029,4.60092,2470.646,2023-8-19T04:44:54Z
2023-08-19T02:45:37Z,42.805,6.029,13.3030,4.60090,2470.624,2023-8-19T04:47:57Z
2023-08-19T02:48:40Z,42.805,6.029,13.3030,4.60091,2470.646,2023-8-19T04:51:00Z
2023-08-19T02:51:43Z,42.805,6.029,13.3035,4.60091,2470.67,2023-8-19T04:54:03Z
2023-08-19T02:54:46Z,42.805,6.029,13.3031,4.60094,2470.646,2023-8-19T04:57:06Z
2023-08-19T02:57:49Z,42.805,6.029,13.3026,4.60089,2470.646,2023-8-19T05:00:09Z
2023-08-19T03:00:53Z,42.805,6.029,13.3029,4.60092,2470.6,2023-8-19T05:03:12Z
2023-08-19T03:03:56Z,42.805,6.029,13.3031,4.60092,2470.646,2023-8-19T05:06:15Z
2023-08-19T03:06:59Z,42.805,6.029,13.3035,4.60092,2470.67,2023-8-19T05:09:18Z
2023-08-19T03:10:02Z,42.805,6.029,13.3028,4.60090,2470.661,2023-8-19T05:12:21Z
2023-08-19T03:13:05Z,42.805,6.029,13.3031,4.60091,2470.67,2023-8-19T05:15:25Z
2023-08-19T03:16:08Z,42.805,6.029,13.3031,4.60092,2470.646,2023-8-19T05:18:28Z
2023-08-19T03:19:11Z,42.805,6.029,13.3032,4.60091,2470.624,2023-8-19T05:21:31Z
2023-08-19T03:22:14Z,42.805,6.029,13.3032,4.60093,2470.646,2023-8-19T05:24:34Z
2023-08-19T03:25:17Z,42.805,6.029,13.3029,4.60090,2470.646,2023-8-19T05:27:37Z
2023-08-19T03:28:20Z,42.805,6.029,13.3028,4.60091,2470.624,2023-8-19T05:30:40Z
2023-08-19T03:31:23Z,42.805,6.029,13.3030,4.60093,2470.624,2023-8-19T05:33:43Z
2023-08-19T03:34:26Z,42.805,6.029,13.3031,4.60091,2470.637,2023-8-19T05:36:46Z
2023-08-19T03:37:30Z,42.805,6.029,13.3034,4.60091,2470.624,2023-8-19T05:39:49Z
2023-08-19T03:40:33Z,42.805,6.029,13.3029,4.60091,2470.624,2023-8-19T05:42:52Z
2023-08-19T03:43:36Z,42.805,6.029,13.3034,4.60092,2470.637,2023-8-19T05:45:55Z
2023-08-19T03:46:39Z,42.805,6.029,13.3029,4.60092,2470.646,2023-8-19T05:48:58Z
2023-08-19T03:49:42Z,42.805,6.029,13.3034,4.60093,2470.661,2023-8-19T05:52:02Z
2023-08-19T03:52:45Z,42.805,6.029,13.3030,4.60092,2470.646,2023-8-19T05:55:05Z
2023-08-19T03:55:48Z,42.805,6.029,13.3031,4.60092,2470.661,2023-8-19T05:58:08Z
2023-08-19T03:58:51Z,42.805,6.029,13.3032,4.60092,2470.646,2023-8-19T06:01:11Z
2023-08-19T04:01:54Z,42.805,6.029,13.3035,4.60092,2470.624,2023-8-19T06:04:14Z
2023-08-19T04:04:57Z,42.805,6.029,13.3034,4.60092,2470.67,2023-8-19T06:07:17Z
2023-08-19T04:08:00Z,42.805,6.029,13.3033,4.60093,2470.661,2023-8-19T06:10:20Z
2023-08-19T04:11:03Z,42.805,6.029,13.3030,4.60092,2470.646,2023-8-19T06:13:23Z
2023-08-19T04:14:07Z,42.805,6.029,13.3034,4.60093,2470.646,2023-8-19T06:16:26Z
2023-08-19T04:17:10Z,42.805,6.029,13.3030,4.60093,2470.646,2023-8-19T06:19:29Z
2023-08-19T04:20:13Z,42.805,6.029,13.3034,4.60094,2470.67,2023-8-19T06:22:32Z
2023-08-19T04:23:16Z,42.805,6.029,13.3031,4.60094,2470.661,2023-8-19T06:25:35Z
2023-08-19T04:26:19Z,42.805,6.029,13.3034,4.60093,2470.67,2023-8-19T06:28:39Z
2023-08-19T04:29:22Z,42.805,6.029,13.3035,4.60093,2470.646,2023-8-19T06:31:42Z
2023-08-19T04:32:25Z,42.805,6.029,13.3030,4.60095,2470.661,2023-8-19T06:34:45Z
2023-08-19T04:35:28Z,42.805,6.029,13.3035,4.60093,2470.624,2023-8-19T06:37:48Z
2023-08-19T04:38:31Z,42.805,6.029,13.3037,4.60098,2470.67,2023-8-19T06:40:51Z
2023-08-19T04:41:34Z,42.805,6.029,13.3035,4.60095,2470.67,2023-8-19T06:43:54Z
2023-08-19T04:44:37Z,42.805,6.029,13.3029,4.60094,2470.684,2023-8-19T06:46:57Z
2023-08-19T04:47:41Z,42.805,6.029,13.3030,4.60094,2470.67,2023-8-19T06:50:00Z
2023-08-19T04:50:44Z,42.805,6.029,13.3031,4.60094,2470.646,2023-8-19T06:53:03Z
2023-08-19T04:53:47Z,42.805,6.029,13.3034,4.60096,2470.693,2023-8-19T06:56:06Z
2023-08-19T04:56:50Z,42.805,6.029,13.3035,4.60095,2470.633,2023-8-19T06:59:09Z
2023-08-19T04:59:53Z,42.805,6.029,13.3036,4.60094,2470.707,2023-8-19T07:02:12Z
2023-08-19T05:02:56Z,42.805,6.029,13.3032,4.60097,2470.67,2023-8-19T07:05:16Z
2023-08-19T05:05:59Z,42.805,6.029,13.3032,4.60098,2470.67,2023-8-19T07:08:19Z
2023-08-19T05:09:02Z,42.805,6.029,13.3036,4.60095,2470.661,2023-8-19T07:11:22Z
2023-08-19T05:12:05Z,42.805,6.029,13.3033,4.60094,2470.67,2023-8-19T07:14:25Z
2023-08-19T05:15:08Z,42.805,6.029,13.3036,4.60095,2470.646,2023-8-19T07:17:28Z
2023-08-19T05:18:11Z,42.805,6.029,13.3035,4.60097,2470.661,2023-8-19T07:20:31Z
2023-08-19T05:21:14Z,42.805,6.029,13.3034,4.60098,2470.67,2023-8-19T07:23:34Z
2023-08-19T05:24:17Z,42.805,6.029,13.3034,4.60096,2470.67,2023-8-19T07:26:37Z
2023-08-19T05:27:21Z,42.805,6.029,13.3033,4.60095,2470.646,2023-8-19T07:29:40Z
2023-08-19T05:30:24Z,42.805,6.029,13.3034,4.60094,2470.684,2023-8-19T07:32:43Z
2023-08-19T05:33:27Z,42.805,6.029,13.3039,4.60094,2470.684,2023-8-19T07:35:46Z
2023-08-19T05:36:30Z,42.805,6.029,13.3034,4.60094,2470.684,2023-8-19T07:38:49Z
2023-08-19T05:39:33Z,42.805,6.029,13.3034,4.60094,2470.707,2023-8-19T07:41:53Z
2023-08-19T05:42:36Z,42.805,6.029,13.3039,4.60102,2470.693,2023-8-19T07:44:56Z
2023-08-19T05:45:39Z,42.805,6.029,13.3048,4.60099,2470.707,2023-8-19T07:47:59Z
2023-08-19T05:48:42Z,42.805,6.029,13.3034,4.60096,2470.707,2023-8-19T07:51:02Z
2023-08-19T05:51:45Z,42.805,6.029,13.3034,4.60095,2470.707,2023-8-19T07:54:05Z
2023-08-19T05:54:48Z,42.805,6.029,13.3034,4.60097,2470.693,2023-8-19T07:57:08Z
2023-08-19T05:57:51Z,42.805,6.029,13.3035,4.60099,2470.693,2023-8-19T08:00:11Z
2023-08-19T06:00:54Z,42.805,6.029,13.3036,4.60094,2470.693,2023-8-19T08:03:14Z
2023-08-19T06:03:58Z,42.805,6.029,13.3034,4.60097,2470.693,2023-8-19T08:06:17Z
2023-08-19T06:07:01Z,42.805,6.029,13.3035,4.60097,2470.717,2023-8-19T08:09:20Z
2023-08-19T06:10:04Z,42.805,6.029,13.3034,4.60096,2470.693,2023-8-19T08:12:23Z
2023-08-19T06:13:07Z,42.805,6.029,13.3036,4.60097,2470.693,2023-8-19T08:15:26Z
2023-08-19T06:16:10Z,42.805,6.029,13.3039,4.60097,2470.707,2023-8-19T08:18:30Z
2023-08-19T06:19:13Z,42.805,6.029,13.3048,4.60105,2470.717,2023-8-19T08:21:33Z
2023-08-19T06:22:16Z,42.805,6.029,13.3034,4.60102,2470.707,2023-8-19T08:24:36Z
2023-08-19T06:25:19Z,42.805,6.029,13.3036,4.60097,2470.717,2023-8-19T08:27:39Z
2023-08-19T06:28:22Z,42.805,6.029,13.3032,4.60096,2470.707,2023-8-19T08:30:42Z
2023-08-19T06:31:24Z,42.805,6.029,13.3037,4.60103,2470.73,2023-8-19T08:33:44Z
2023-08-19T06:34:27Z,42.805,6.029,13.3041,4.60102,2470.74,2023-8-19T08:36:47Z
2023-08-19T06:37:30Z,42.805,6.029,13.3054,4.60103,2470.717,2023-8-19T08:39:50Z
2023-08-19T06:40:33Z,42.805,6.029,13.3041,4.60102,2470.717,2023-8-19T08:42:53Z
2023-08-19T06:43:36Z,42.805,6.029,13.3036,4.60098,2470.73,2023-8-19T08:45:56Z
2023-08-19T06:46:39Z,42.805,6.029,13.3038,4.60103,2470.717,2023-8-19T08:48:59Z
2023-08-19T06:49:42Z,42.805,6.029,13.3041,4.60098,2470.763,2023-8-19T08:52:02Z
2023-08-19T06:52:45Z,42.805,6.029,13.3049,4.60119,2470.74,2023-8-19T08:55:05Z
2023-08-19T06:55:49Z,42.805,6.029,13.3039,4.60102,2470.73,2023-8-19T08:58:08Z
2023-08-19T06:58:52Z,42.805,6.029,13.3054,4.60122,2470.717,2023-8-19T09:01:11Z
2023-08-19T07:01:55Z,42.805,6.029,13.3048,4.60102,2470.754,2023-8-19T09:04:14Z
2023-08-19T07:04:58Z,42.805,6.029,13.3046,4.60109,2470.74,2023-8-19T09:07:17Z
2023-08-19T07:08:01Z,42.805,6.029,13.3044,4.60102,2470.777,2023-8-19T09:10:20Z
2023-08-19T07:11:04Z,42.805,6.029,13.3061,4.60134,2470.74,2023-8-19T09:13:24Z
2023-08-19T07:14:07Z,42.805,6.029,13.3047,4.60134,2470.74,2023-8-19T09:16:27Z
2023-08-19T07:17:10Z,42.805,6.029,13.3051,4.60168,2470.763,2023-8-19T09:19:30Z
2023-08-19T07:20:13Z,42.805,6.029,13.3048,4.60134,2470.787,2023-8-19T09:22:33Z
2023-08-19T07:23:16Z,42.805,6.029,13.3046,4.60107,2470.74,2023-8-19T09:25:36Z
2023-08-19T07:26:19Z,42.805,6.029,13.3039,4.60101,2470.763,2023-8-19T09:28:39Z
2023-08-19T07:29:22Z,42.805,6.029,13.3037,4.60108,2470.763,2023-8-19T09:31:42Z
2023-08-19T07:32:26Z,42.805,6.029,13.3050,4.60124,2470.763,2023-8-19T09:34:45Z
2023-08-19T07:35:29Z,42.805,6.029,13.3052,4.60132,2470.777,2023-8-19T09:37:48Z
2023-08-19T07:38:32Z,42.805,6.029,13.3048,4.60133,2470.777,2023-8-19T09:40:51Z
2023-08-19T07:41:35Z,42.805,6.029,13.3044,4.60115,2470.796,2023-8-19T09:43:54Z
2023-08-19T07:44:38Z,42.805,6.029,13.3056,4.60144,2470.74,2023-8-19T09:46:58Z
2023-08-19T07:47:41Z,42.805,6.029,13.3036,4.60099,2470.8,2023-8-19T09:50:01Z
2023-08-19T07:50:44Z,42.805,6.029,13.3051,4.60115,2470.763,2023-8-19T09:53:04Z
2023-08-19T07:53:47Z,42.805,6.029,13.3070,4.60150,2470.787,2023-8-19T09:56:07Z
2023-08-19T07:56:50Z,42.805,6.029,13.3046,4.60119,2470.777,2023-8-19T09:59:10Z
2023-08-19T07:59:53Z,42.805,6.029,13.3049,4.60119,2470.787,2023-8-19T10:02:13Z
2023-08-19T08:02:56Z,42.805,6.029,13.3062,4.60145,2470.8,2023-8-19T10:05:16Z
2023-08-19T08:05:59Z,42.805,6.029,13.3054,4.60162,2470.824,2023-8-19T10:08:19Z
2023-08-19T08:09:03Z,42.805,6.029,13.3051,4.60183,2470.787,2023-8-19T10:11:22Z
2023-08-19T08:12:06Z,42.805,6.029,13.3061,4.60120,2470.763,2023-8-19T10:14:25Z
2023-08-19T08:15:09Z,42.805,6.029,13.3056,4.60128,2470.8,2023-8-19T10:17:28Z
2023-08-19T08:18:12Z,42.805,6.029,13.3058,4.60157,2470.787,2023-8-19T10:20:31Z
2023-08-19T08:21:15Z,42.805,6.029,13.3058,4.60150,2470.787,2023-8-19T10:23:34Z
2023-08-19T08:24:18Z,42.805,6.029,13.3060,4.60125,2470.787,2023-8-19T10:26:38Z
2023-08-19T08:27:21Z,42.805,6.029,13.3060,4.60133,2470.777,2023-8-19T10:29:41Z
2023-08-19T08:30:23Z,42.805,6.029,13.3057,4.60132,2470.8,2023-8-19T10:32:42Z
2023-08-19T08:33:26Z,42.805,6.029,13.3063,4.60137,2470.8,2023-8-19T10:35:45Z
2023-08-19T08:36:29Z,42.805,6.029,13.3067,4.60126,2470.787,2023-8-19T10:38:48Z
2023-08-19T08:39:32Z,42.805,6.029,13.3050,4.60114,2470.777,2023-8-19T10:41:51Z
2023-08-19T08:42:35Z,42.805,6.029,13.3063,4.60122,2470.763,2023-8-19T10:44:55Z
2023-08-19T08:45:38Z,42.805,6.029,13.3064,4.60131,2470.763,2023-8-19T10:47:58Z
2023-08-19T08:48:41Z,42.805,6.029,13.3057,4.60145,2470.777,2023-8-19T10:51:01Z
2023-08-19T08:51:44Z,42.805,6.029,13.3063,4.60123,2470.8,2023-8-19T10:54:04Z
2023-08-19T08:54:47Z,42.805,6.029,13.3063,4.60173,2470.754,2023-8-19T10:57:07Z
2023-08-19T08:57:50Z,42.805,6.029,13.3057,4.60185,2470.787,2023-8-19T11:00:10Z
2023-08-19T09:00:53Z,42.805,6.029,13.3067,4.60127,2470.777,2023-8-19T11:03:13Z
2023-08-19T09:03:56Z,42.805,6.029,13.3072,4.60132,2470.787,2023-8-19T11:06:16Z
2023-08-19T09:07:00Z,42.805,6.029,13.3067,4.60126,2470.754,2023-8-19T11:09:19Z
2023-08-19T09:10:03Z,42.805,6.029,13.3063,4.60119,2470.81,2023-8-19T11:12:22Z
2023-08-19T09:13:06Z,42.805,6.029,13.3056,4.60153,2470.824,2023-8-19T11:15:25Z
2023-08-19T09:16:09Z,42.805,6.029,13.3064,4.60157,2470.787,2023-8-19T11:18:28Z
2023-08-19T09:19:12Z,42.805,6.029,13.3056,4.60160,2470.777,2023-8-19T11:21:32Z
2023-08-19T09:22:15Z,42.805,6.029,13.3049,4.60169,2470.777,2023-8-19T11:24:35Z
2023-08-19T09:25:18Z,42.805,6.029,13.3056,4.60167,2470.74,2023-8-19T11:27:38Z
2023-08-19T09:28:21Z,42.805,6.029,13.3054,4.60188,2470.8,2023-8-19T11:30:41Z
2023-08-19T09:31:24Z,42.805,6.029,13.3051,4.60124,2470.754,2023-8-19T11:33:44Z
2023-08-19T09:34:27Z,42.805,6.029,13.3048,4.60184,2470.763,2023-8-19T11:36:47Z
2023-08-19T09:37:30Z,42.805,6.029,13.3057,4.60167,2470.754,2023-8-19T11:39:50Z
2023-08-19T09:40:33Z,42.805,6.029,13.3050,4.60159,2470.763,2023-8-19T11:42:53Z
2023-08-19T09:43:37Z,42.805,6.029,13.3050,4.60155,2470.754,2023-8-19T11:45:56Z
2023-08-19T09:46:40Z,42.805,6.029,13.3063,4.60162,2470.754,2023-8-19T11:48:59Z
2023-08-19T09:49:43Z,42.805,6.029,13.3052,4.60178,2470.8,2023-8-19T11:52:02Z
2023-08-19T09:52:46Z,42.805,6.029,13.3065,4.60129,2470.777,2023-8-19T11:55:06Z
2023-08-19T09:55:49Z,42.805,6.029,13.3064,4.60148,2470.74,2023-8-19T11:58:09Z
2023-08-19T09:58:52Z,42.805,6.029,13.3059,4.60163,2470.763,2023-8-19T12:01:12Z
2023-08-19T10:01:55Z,42.805,6.029,13.3059,4.60193,2470.763,2023-8-19T12:04:15Z
2023-08-19T10:04:58Z,42.805,6.029,13.3066,4.60156,2470.777,2023-8-19T12:07:18Z
2023-08-19T10:08:01Z,42.805,6.029,13.3056,4.60186,2470.754,2023-8-19T12:10:21Z
2023-08-19T10:11:04Z,42.805,6.029,13.3070,4.60164,2470.717,2023-8-19T12:13:24Z
2023-08-19T10:14:07Z,42.805,6.029,13.3060,4.60173,2470.74,2023-8-19T12:16:27Z
2023-08-19T10:17:11Z,42.805,6.029,13.3056,4.60193,2470.74,2023-8-19T12:19:30Z
2023-08-19T10:20:14Z,42.805,6.029,13.3058,4.60192,2470.763,2023-8-19T12:22:33Z
2023-08-19T10:23:17Z,42.805,6.029,13.3055,4.60178,2470.74,2023-8-19T12:25:36Z
2023-08-19T10:26:20Z,42.805,6.029,13.3054,4.60129,2470.754,2023-8-19T12:28:39Z
2023-08-19T10:29:23Z,42.805,6.029,13.3051,4.60144,2470.717,2023-8-19T12:31:43Z
2023-08-19T10:32:26Z,42.805,6.029,13.3063,4.60185,2470.73,2023-8-19T12:34:46Z
2023-08-19T10:35:29Z,42.805,6.029,13.3081,4.60158,2470.717,2023-8-19T12:37:49Z
2023-08-19T10:38:32Z,42.805,6.029,13.3056,4.60171,2470.74,2023-8-19T12:40:52Z
2023-08-19T10:41:35Z,42.805,6.029,13.3048,4.60150,2470.717,2023-8-19T12:43:55Z
2023-08-19T10:44:38Z,42.805,6.029,13.3076,4.60147,2470.717,2023-8-19T12:46:58Z
2023-08-19T10:47:41Z,42.805,6.029,13.3067,4.60191,2470.754,2023-8-19T12:50:01Z
2023-08-19T10:50:45Z,42.805,6.029,13.3089,4.60170,2470.717,2023-8-19T12:53:04Z
2023-08-19T10:53:48Z,42.805,6.029,13.3070,4.60173,2470.73,2023-8-19T12:56:07Z
2023-08-19T10:56:51Z,42.805,6.029,13.3080,4.60183,2470.717,2023-8-19T12:59:10Z
2023-08-19T10:59:54Z,42.805,6.029,13.3052,4.60128,2470.684,2023-8-19T13:02:13Z
2023-08-19T11:02:57Z,42.805,6.029,13.3069,4.60163,2470.707,2023-8-19T13:05:17Z
2023-08-19T11:06:00Z,42.805,6.029,13.3104,4.60146,2470.717,2023-8-19T13:08:20Z
2023-08-19T11:09:03Z,42.805,6.029,13.3087,4.60143,2470.73,2023-8-19T13:11:23Z
2023-08-19T11:12:06Z,42.805,6.029,13.3051,4.60174,2470.717,2023-8-19T13:14:26Z
2023-08-19T11:15:09Z,42.805,6.029,13.3055,4.60185,2470.717,2023-8-19T13:17:29Z
2023-08-19T11:18:12Z,42.805,6.029,13.3070,4.60134,2470.707,2023-8-19T13:20:32Z
2023-08-19T11:21:15Z,42.805,6.029,13.3071,4.60141,2470.73,2023-8-19T13:23:35Z
2023-08-19T11:24:18Z,42.805,6.029,13.3070,4.60151,2470.693,2023-8-19T13:26:38Z
2023-08-19T11:27:22Z,42.805,6.029,13.3054,4.60156,2470.693,2023-8-19T13:29:41Z
2023-08-19T11:30:25Z,42.805,6.029,13.3061,4.60163,2470.684,2023-8-19T13:32:44Z
2023-08-19T11:33:28Z,42.805,6.029,13.3094,4.60189,2470.684,2023-8-19T13:35:47Z
2023-08-19T11:36:31Z,42.805,6.029,13.3063,4.60189,2470.73,2023-8-19T13:38:50Z
2023-08-19T11:39:34Z,42.805,6.029,13.3071,4.60180,2470.67,2023-8-19T13:41:54Z
2023-08-19T11:42:37Z,42.805,6.029,13.3063,4.60175,2470.684,2023-8-19T13:44:57Z
2023-08-19T11:45:40Z,42.805,6.029,13.3085,4.60144,2470.693,2023-8-19T13:48:00Z
2023-08-19T11:48:43Z,42.805,6.029,13.3076,4.60140,2470.684,2023-8-19T13:51:03Z
2023-08-19T11:51:46Z,42.805,6.029,13.3079,4.60176,2470.684,2023-8-19T13:54:06Z
2023-08-19T11:54:49Z,42.805,6.029,13.3071,4.60156,2470.684,2023-8-19T13:57:09Z
2023-08-19T11:57:52Z,42.805,6.029,13.3043,4.60135,2470.684,2023-8-19T14:00:12Z
2023-08-19T12:00:56Z,42.805,6.029,13.3073,4.60138,2470.67,2023-8-19T14:03:15Z
2023-08-19T12:03:59Z,42.805,6.029,13.3076,4.60111,2470.693,2023-8-19T14:06:18Z
2023-08-19T12:07:02Z,42.805,6.029,13.3087,4.60103,2470.684,2023-8-19T14:09:21Z
2023-08-19T12:10:05Z,42.805,6.029,13.3065,4.60140,2470.661,2023-8-19T14:12:24Z
2023-08-19T12:13:08Z,42.805,6.029,13.3063,4.60157,2470.707,2023-8-19T14:15:28Z
2023-08-19T12:16:11Z,42.805,6.029,13.3060,4.60175,2470.67,2023-8-19T14:18:31Z
2023-08-19T12:19:14Z,42.805,6.029,13.3067,4.60155,2470.646,2023-8-19T14:21:34Z
2023-08-19T12:22:17Z,42.805,6.029,13.3089,4.60137,2470.646,2023-8-19T14:24:37Z
2023-08-19T12:25:20Z,42.805,6.029,13.3096,4.60131,2470.684,2023-8-19T14:27:40Z
2023-08-19T12:28:23Z,42.805,6.029,13.3085,4.60131,2470.67,2023-8-19T14:30:43Z
2023-08-19T12:31:28Z,42.805,6.029,13.3090,4.60151,2470.646,2023-8-19T14:33:48Z
2023-08-19T12:34:31Z,42.805,6.029,13.3109,4.60162,2470.684,2023-8-19T14:36:51Z
2023-08-19T12:37:34Z,42.805,6.029,13.3096,4.60119,2470.67,2023-8-19T14:39:54Z
2023-08-19T12:40:37Z,42.805,6.029,13.3089,4.60102,2470.646,2023-8-19T14:42:57Z
2023-08-19T12:43:40Z,42.805,6.029,13.3069,4.60099,2470.646,2023-8-19T14:46:00Z
2023-08-19T12:46:44Z,42.805,6.029,13.3067,4.60103,2470.637,2023-8-19T14:49:03Z
2023-08-19T12:49:47Z,42.805,6.029,13.3059,4.60102,2470.646,2023-8-19T14:52:06Z
2023-08-19T12:52:50Z,42.805,6.029,13.3037,4.60104,2470.646,2023-8-19T14:55:09Z
2023-08-19T12:55:53Z,42.805,6.029,13.3039,4.60133,2470.67,2023-8-19T14:58:12Z
2023-08-19T12:58:56Z,42.805,6.029,13.3041,4.60148,2470.661,2023-8-19T15:01:16Z
2023-08-19T13:01:59Z,42.805,6.029,13.3052,4.60140,2470.624,2023-8-19T15:04:19Z
2023-08-19T13:05:02Z,42.805,6.029,13.3053,4.60132,2470.624,2023-8-19T15:07:22Z
2023-08-19T13:08:05Z,42.805,6.029,13.3056,4.60125,2470.624,2023-8-19T15:10:25Z
2023-08-19T13:11:08Z,42.805,6.029,13.3068,4.60121,2470.624,2023-8-19T15:13:28Z
2023-08-19T13:14:11Z,42.805,6.029,13.3057,4.60105,2470.624,2023-8-19T15:16:31Z
2023-08-19T13:17:14Z,42.805,6.029,13.3065,4.60108,2470.637,2023-8-19T15:19:34Z
2023-08-19T13:20:17Z,42.805,6.029,13.3058,4.60108,2470.637,2023-8-19T15:22:37Z
2023-08-19T13:23:21Z,42.805,6.029,13.3053,4.60101,2470.624,2023-8-19T15:25:40Z
2023-08-19T13:26:24Z,42.805,6.029,13.3054,4.60102,2470.637,2023-8-19T15:28:43Z
2023-08-19T13:29:27Z,42.805,6.029,13.3048,4.60098,2470.6,2023-8-19T15:31:46Z
2023-08-19T13:32:30Z,42.805,6.029,13.3046,4.60099,2470.614,2023-8-19T15:34:49Z
2023-08-19T13:35:33Z,42.805,6.029,13.3043,4.60098,2470.614,2023-8-19T15:37:53Z
2023-08-19T13:38:36Z,42.805,6.029,13.3036,4.60098,2470.6,2023-8-19T15:40:56Z
2023-08-19T13:41:39Z,42.805,6.029,13.3032,4.60098,2470.577,2023-8-19T15:43:59Z
2023-08-19T13:44:42Z,42.805,6.029,13.3031,4.60100,2470.624,2023-8-19T15:47:02Z
2023-08-19T13:47:45Z,42.805,6.029,13.3032,4.60122,2470.624,2023-8-19T15:50:05Z
2023-08-19T13:50:48Z,42.805,6.029,13.3033,4.60110,2470.637,2023-8-19T15:53:08Z
2023-08-19T13:53:51Z,42.805,6.029,13.3029,4.60097,2470.646,2023-8-19T15:56:11Z
2023-08-19T13:56:54Z,42.805,6.029,13.3033,4.60097,2470.577,2023-8-19T15:59:14Z
2023-08-19T13:59:58Z,42.805,6.029,13.3030,4.60095,2470.6,2023-8-19T16:02:17Z
2023-08-19T14:03:01Z,42.805,6.029,13.3028,4.60094,2470.637,2023-8-19T16:05:20Z
2023-08-19T14:06:04Z,42.805,6.029,13.3030,4.60095,2470.6,2023-8-19T16:08:23Z
2023-08-19T14:09:07Z,42.805,6.029,13.3031,4.60096,2470.6,2023-8-19T16:11:26Z
2023-08-19T14:12:10Z,42.805,6.029,13.3032,4.60093,2470.637,2023-8-19T16:14:30Z
2023-08-19T14:15:13Z,42.805,6.029,13.3029,4.60095,2470.637,2023-8-19T16:17:33Z
2023-08-19T14:18:16Z,42.805,6.029,13.3029,4.60092,2470.614,2023-8-19T16:20:36Z
2023-08-19T14:21:19Z,42.805,6.029,13.3027,4.60093,2470.614,2023-8-19T16:23:39Z
2023-08-19T14:24:22Z,42.805,6.029,13.3032,4.60092,2470.6,2023-8-19T16:26:42Z
2023-08-19T14:27:25Z,42.805,6.029,13.3032,4.60092,2470.624,2023-8-19T16:29:45Z
2023-08-19T14:30:28Z,42.805,6.029,13.3031,4.60092,2470.6,2023-8-19T16:32:47Z
2023-08-19T14:33:31Z,42.805,6.029,13.3032,4.60092,2470.624,2023-8-19T16:35:51Z
2023-08-19T14:36:34Z,42.805,6.029,13.3026,4.60092,2470.624,2023-8-19T16:38:54Z
2023-08-19T14:39:37Z,42.805,6.029,13.3029,4.60092,2470.6,2023-8-19T16:41:57Z
2023-08-19T14:42:40Z,42.805,6.029,13.3027,4.60096,2470.614,2023-8-19T16:45:00Z
2023-08-19T14:45:43Z,42.805,6.029,13.3029,4.60094,2470.577,2023-8-19T16:48:03Z
2023-08-19T14:48:46Z,42.805,6.029,13.3031,4.60092,2470.624,2023-8-19T16:51:06Z
2023-08-19T14:51:49Z,42.805,6.029,13.3030,4.60096,2470.586,2023-8-19T16:54:09Z
2023-08-19T14:54:52Z,42.805,6.029,13.3028,4.60095,2470.6,2023-8-19T16:57:12Z
2023-08-19T14:57:56Z,42.805,6.029,13.3034,4.60097,2470.624,2023-8-19T17:00:15Z
2023-08-19T15:00:59Z,42.805,6.029,13.3031,4.60096,2470.637,2023-8-19T17:03:18Z
2023-08-19T15:04:02Z,42.805,6.029,13.3031,4.60094,2470.6,2023-8-19T17:06:21Z
2023-08-19T15:07:05Z,42.805,6.029,13.3034,4.60094,2470.624,2023-8-19T17:09:24Z
2023-08-19T15:10:08Z,42.805,6.029,13.3027,4.60092,2470.624,2023-8-19T17:12:28Z
2023-08-19T15:13:11Z,42.805,6.029,13.3031,4.60092,2470.6,2023-8-19T17:15:31Z